"Pseudo-MPEC" for P116h77

Created 2020 Sep 19 3:07:37 UT using Find_Orb

Click here for an explanation of pseudo-MPECs

 
 Astrometry: 
     P116h77  C2020 09 16C)75*QAHAjZPJZ5yw%K0\wd48(`8CP;''6)H'cSQxBIQ@NVF88w?F51
     P116h77  C2020 09 16#e1+%JeHT')[=3^xPk)N3S%S[[SttPmQ;X6t(v\)r9Vyi!(45wBqF51
     P116h77  C2020 09 16YuE-L88ApNS*8igah1qA!rIsa9p)0)$/j*G(q1vJAstrometryo4F51
     P116h77  C2020 09 16:]-!%MFsEIl,bc5LFn[7x\s$T^$Tir7PtpH!BF?h-(Qv.RjjiCb!F51
     P116h77  C2020 09 17.13333 23 09 03.96 +14 42 16.6    ~9H3q 21.2 GVNEOCPV06
     P116h77  C2020 09 17.13729 23 09 03.73 +14 42 11.4    ~9H3q 21.8 GVNEOCPV06
     P116h77  C2020 09 17.14125 23 09 03.48 +14 42 06.2    ~9H3q 21.9 GVNEOCPV06
     P116h77  C2020 09 17.14522 23 09 03.28 +14 42 01.1    ~9H3q 21.5 GVNEOCPV06
     P116h77 KC2020 09 17ZGV_UEWFO+w,Xs-Qb:redacted;3mjBE[fhXlQYMR5fa4w-c]I;i711
     P116h77 KC2020 09 17[4P2PDFD5BCJ.2(T=a'IQG0eE=)(@DK!23c3-5U*_=ArYclick]S711
     P116h77 KC2020 09 17(4!8y/\\OaP9=V+=SaGmXd4PCq*L+__9NAO#6ToTLKrWh%rirQSa711
     P116h77  C2020 09 17'Q2eWr$uWqIRF'here.]5#7a(crJhk:aBm#D4CU,GQ=?Tp?[Xp\9F51
     P116h77  C2020 09 17WPiEu),=PbtOv=*)?[F86pWKO4BeMS)*]rOXU5O,wJ[sA?V:U#,kF51
     P116h77  C2020 09 17MdpR8gYlKcOClbS[7_2at`]9wforns*9GexplanationH0IkYHpwF51
     P116h77 KC2020 09 18RmC:FYQ_kmYQ*MH'uAeihgSlAU7UX-,0T)$!b/`TVt_`G-BvOaeqH21
     P116h77 KC2020 09 18)=JN.Y`oeJJoN%W7een_K.`XP]al3uu*y#mYcbxgfGokY,WDTpIcH21
     P116h77 KC2020 09 181\mHC9J04y;4.G?Jy`7GU(b9$pdN3O0'w-@!/!3wWuxQEwk6DGs$H21

Station data:
(711) McDonald Observatory, Fort Davis  (N30.671481 W104.021500)  US/Texas.
   0.76-m f/3.0 reflector.
(F51) Pan-STARRS 1, Haleakala  (N20.707235 W156.255910)  US/Hawaii.
   Observers N. Primak, A. Schultz, S. Watters, J. Thiel, T. Goggia. Measurer
   PS1 Science Consortium. 1.8-m Ritchey-Chrétien + CCD.
(H21) Astronomical Research Observatory, Westfield  (N39.483057 W87.968270)
   US/Illinois. 0.76-m f/3.0 astrograph + CCD.
(V06) Catalina Sky Survey-Kuiper  (N32.416847 W110.732550)  US/Arizona.
   Observers T. A. Pruyne, B. M. Africano, E. J. Christensen, G. A. Farneth,
   D. C. Fuls, A. R. Gibbs, A. D. Grauer, H. Gröller, J. A. Johnson, R. A.
   Kowalski, S. M. Larson, G. J. Leonard, D. Rankin, R. L. Seaman, F. C.
   Shelly. 1.55-m reflector + CCD.

Orbital elements:  P116h77
   Perihelion 2021 May 15.764451 +/- 18.3 TT = 18:20:48 (JD 2459350.264451)
Epoch 2020 Sep 18.0 TT = JDT 2459110.5   Earth MOID: 0.7280   AutoNEOCP
M 267.51853666 +/- 8                (J2000 ecliptic)
n   0.38571799 +/- 0.0155           Peri.  265.21682 +/- 4.9
a   1.86905801 +/- 0.0501           Node   197.40231 +/- 1.2
e   0.1526311 +/- 0.0348            Incl.   21.97040 +/- 1.5
P   2.56/933.31d           H 20.3   G  0.15   U 10.0  
q 1.58378156 +/- 0.0334    Q 2.15433446 +/- 0.119
From 17 observations 2020 Sept. 16-18 (43.2 hr); mean residual 0".82
Residuals in arcseconds: 
200916 F51  .53-  .38+    200917 V06  .73-  .02-    200917 F51  .80-  .10+    
200916 F51  .54-  .36+    200917 V06  .32-  .04-    200917 F51  .77-  .09+    
200916 F51  .88-  .29+    200917 711  2.4+  .53-    200918 H21  .03+  .45+    
200916 F51  .67-  .43+    200917 711  2.2+  1.1-    200918 H21  .51-  .21+    
200917 V06  .38-  .24+    200917 711  1.8+  .75-    200918 H21  .59-  .25+    
200917 V06  .42-  .11+    200917 F51  .87-  .07-    

Ephemerides (geocentric):
Date (UTC) HH   RA              Dec         delta   r     elong  mag " sig PA
---- -- -- --  -------------   -----------  ------ ------ -----  --- ---- ---
2020 09 19 03  23 07 14.073   +13 58 46.09  .94181 1.9218 161.7 22.2 .805 111
2020 09 19 04  23 07 11.807   +13 57 50.51  .94174 1.9217 161.7 22.2 .852 112
2020 09 19 05  23 07 09.542   +13 56 54.91  .94167 1.9216 161.7 22.2 .901 112
2020 09 19 06  23 07 07.278   +13 55 59.26  .94160 1.9215 161.7 22.2 .950 112
2020 09 19 07  23 07 05.016   +13 55 03.58  .94153 1.9214 161.8 22.2 1.00 112
2020 09 19 08  23 07 02.754   +13 54 07.87  .94146 1.9214 161.8 22.2 1.05 113
2020 09 19 09  23 07 00.494   +13 53 12.13  .94139 1.9213 161.8 22.2 1.10 113
2020 09 19 10  23 06 58.235   +13 52 16.34  .94132 1.9212 161.8 22.2 1.16 113
2020 09 19 11  23 06 55.976   +13 51 20.53  .94126 1.9211 161.8 22.2 1.21 113
2020 09 19 12  23 06 53.720   +13 50 24.68  .94119 1.9211 161.8 22.2 1.27 114
2020 09 19 13  23 06 51.464   +13 49 28.80  .94112 1.9210 161.8 22.2 1.33 114
2020 09 19 14  23 06 49.209   +13 48 32.88  .94106 1.9209 161.8 22.2 1.38 114
2020 09 19 15  23 06 46.956   +13 47 36.93  .94099 1.9208 161.8 22.2 1.44 114
2020 09 19 16  23 06 44.704   +13 46 40.95  .94092 1.9208 161.8 22.2 1.50 114
2020 09 19 17  23 06 42.453   +13 45 44.93  .94086 1.9207 161.8 22.2 1.57 114
2020 09 19 18  23 06 40.203   +13 44 48.88  .94079 1.9206 161.8 22.2 1.63 114
2020 09 19 19  23 06 37.955   +13 43 52.79  .94073 1.9205 161.8 22.2 1.69 114
2020 09 19 20  23 06 35.707   +13 42 56.68  .94067 1.9204 161.8 22.2 1.76 114
2020 09 19 21  23 06 33.461   +13 42 00.53  .94060 1.9204 161.8 22.2 1.82 115
2020 09 19 22  23 06 31.217   +13 41 04.34  .94054 1.9203 161.8 22.2 1.89 115
2020 09 19 23  23 06 28.973   +13 40 08.13  .94048 1.9202 161.7 22.2 1.96 115
2020 09 20 00  23 06 26.731   +13 39 11.88  .94042 1.9201 161.7 22.2 2.03 115
2020 09 20 01  23 06 24.490   +13 38 15.60  .94036 1.9201 161.7 22.2 2.10 115
2020 09 20 02  23 06 22.250   +13 37 19.28  .94029 1.9200 161.7 22.2 2.17 115
2020 09 20 03  23 06 20.012   +13 36 22.94  .94023 1.9199 161.7 22.2 2.24 115
2020 09 20 04  23 06 17.775   +13 35 26.56  .94017 1.9198 161.7 22.2 2.32 115
2020 09 20 05  23 06 15.539   +13 34 30.15  .94011 1.9198 161.7 22.2 2.39 115
2020 09 20 06  23 06 13.304   +13 33 33.70  .94006 1.9197 161.7 22.2 2.47 115
2020 09 20 07  23 06 11.071   +13 32 37.23  .94000 1.9196 161.7 22.2 2.55 115
2020 09 20 08  23 06 08.839   +13 31 40.72  .93994 1.9195 161.7 22.2 2.62 115
2020 09 20 09  23 06 06.609   +13 30 44.18  .93988 1.9195 161.7 22.2 2.70 115
2020 09 20 10  23 06 04.379   +13 29 47.61  .93982 1.9194 161.7 22.2 2.78 115
2020 09 20 11  23 06 02.152   +13 28 51.01  .93977 1.9193 161.7 22.2 2.87 115
2020 09 20 12  23 05 59.925   +13 27 54.38  .93971 1.9192 161.7 22.2 2.95 115
2020 09 20 13  23 05 57.700   +13 26 57.71  .93965 1.9191 161.7 22.2 3.03 115
2020 09 20 14  23 05 55.476   +13 26 01.02  .93960 1.9191 161.7 22.2 3.12 115
2020 09 20 15  23 05 53.254   +13 25 04.29  .93954 1.9190 161.7 22.2 3.20 115
2020 09 20 16  23 05 51.033   +13 24 07.53  .93949 1.9189 161.7 22.2 3.29 115
2020 09 20 17  23 05 48.813   +13 23 10.74  .93943 1.9188 161.7 22.2 3.38 115
2020 09 20 18  23 05 46.595   +13 22 13.92  .93938 1.9188 161.7 22.2 3.47 115
2020 09 20 19  23 05 44.378   +13 21 17.07  .93933 1.9187 161.7 22.2 3.56 115
2020 09 20 20  23 05 42.163   +13 20 20.19  .93927 1.9186 161.7 22.2 3.65 115
2020 09 20 21  23 05 39.949   +13 19 23.28  .93922 1.9185 161.7 22.2 3.75 115
2020 09 20 22  23 05 37.736   +13 18 26.34  .93917 1.9185 161.7 22.2 3.84 115
2020 09 20 23  23 05 35.525   +13 17 29.37  .93912 1.9184 161.7 22.2 3.94 115
2020 09 21 00  23 05 33.315   +13 16 32.36  .93906 1.9183 161.7 22.2 4.03 115
2020 09 21 01  23 05 31.107   +13 15 35.33  .93901 1.9182 161.7 22.2 4.13 115
2020 09 21 02  23 05 28.900   +13 14 38.27  .93896 1.9181 161.7 22.2 4.23 115